Regional Weather Roundup
Issued by NWS

Home | Current Version | Previous Version | Text Only | Print | Product List | Glossary Off
Versions: 1 2 3 4 5 6 7 8 9 10 11 12 13 14 15 16 17 18 19 20 21 22 23 24 25 26 27 28 29 30 31 32 33 34 35 36 37 38 39 40 41 42 43 44 45 46 47 48 49 50

000
ASUS43 KIND 281059
RWRIN

WEATHER ROUNDUP FOR INDIANA
NATIONAL WEATHER SERVICE INDIANAPOLIS IN
700 AM EDT THU MAY 28 2015

NOTE: "FAIR" INDICATES FEW OR NO CLOUDS BELOW 12,000 FEET WITH NO
SIGNIFICANT WEATHER AND/OR OBSTRUCTIONS TO VISIBILITY.

* - STATION DOES NOT REPORT WEATHER SUCH AS PRECIPITATION OR FOG.

+ - STATION NOT QUALITY CONTROLLED BY THE NATIONAL WEATHER SERVICE.
    USE DATA WITH CAUTION...ESPECIALLY DEWPOINT AND RELATIVE
    HUMIDITY OBSERVATIONS.

INZ001>003-010>013-019-020-281200-
NORTHWEST INDIANA

CITY           SKY/WX    TMP DP  RH WIND       PRES   REMARKS
GARY /AIRPORT/ PTCLDY    54  54 100 SE6       30.20R

$$

LMZ046-743>745-281200-
SOUTHERN LAKE MICHIGAN

STATION/POSITION TIME  TEMP    WIND        PRES    WAVE
                       AIR SEA DIR/SP/G            HT
                 (UTC) (F)     (DEG/KT/KT) (MB)    (FT)
BURNS HARBOR     1000   59     160/  3/  4 1022.7R
MICHIGAN CITY    1000   58     110/  9/ 10   N/A
5NW MICH CITY    1000   55 53  120/  4/  4   N/A     0

$$

INZ004-005-014>016-021>024-281200-
NORTH CENTRAL INDIANA

CITY           SKY/WX    TMP DP  RH WIND       PRES   REMARKS
ELKHART        CLEAR     55  55 100 CALM      30.22  FOG
GOSHEN         FOG       51  50  96 CALM      30.21R VSB 1
SOUTH BEND     CLEAR     53  50  89 NE3       30.22R

$$

INZ006>009-017-018-025>027-281200-
NORTHEAST INDIANA

CITY           SKY/WX    TMP DP  RH WIND       PRES   REMARKS
ANGOLA *+      CLOUDY    48  48 100 CALM      30.21S VSB 0
FORT WAYNE     PTCLDY    56  54  93 CALM      30.22R

$$

INZ028-029-035-036-043>045-051>053-281200-
WEST CENTRAL INDIANA

CITY           SKY/WX    TMP DP  RH WIND       PRES   REMARKS
GREENCASTLE +  CLEAR     55  52  88 CALM      30.20R
LAFAYETTE      CLEAR     55  54  96 S3        30.19R
TERRE HAUTE    CLEAR     59  56  89 NE3       30.18R

$$

INZ030>032-037>040-046>048-054>057-064-065-281200-
CENTRAL INDIANA

CITY           SKY/WX    TMP DP  RH WIND       PRES   REMARKS
COLUMBUS       CLEAR     61  59  94 CALM      30.19  FOG
GREENWOOD *+   PTCLDY    61  55  82 NE7       30.20R
INDIANAPOLIS   PTCLDY    60  55  83 E3        30.18R
-EAGLE CREEK   CLEAR     56  55  97 CALM      30.19R
KOKOMO *+      CLEAR     54  50  87 SE3       30.20R
MT COMFORT *+  PTCLDY    57 N/A N/A N7        30.21R
SHELBYVILLE    PTCLDY    62  59  90 NE3       30.19R

$$

INZ033-034-041-042-049-050-058-059-281200-
EAST CENTRAL INDIANA

CITY           SKY/WX    TMP DP  RH WIND       PRES   REMARKS
MUNCIE         CLEAR     57  55  93 CALM      30.21R

$$

INZ060-061-067>069-081>083-085>088-281200-
SOUTHWEST INDIANA

CITY           SKY/WX    TMP DP  RH WIND       PRES   REMARKS
EVANSVILLE     FOG       64  62  93 CALM      30.17R VSB 1/4
HUNTINGBURG *+ CLOUDY    64  61  88 SE5       30.18R VSB 1/2

$$

INZ062-063-066-070>080-084-089>092-281200-
SOUTH CENTRAL AND SOUTHEAST INDIANA

CITY           SKY/WX    TMP DP  RH WIND       PRES   REMARKS
BLOOMINGTON    FOG       60  59  96 CALM      30.19R VSB 1/2
MADISON *+     CLOUDY    63  61  94 CALM      30.22R
SEYMOUR +      CLOUDY    66  64  94 CALM      30.19R FOG

$$



USA.gov is the U.S. government's official web portal to all federal, state and local government web resources and services.